| time (UTC) | temp C | wind direction | speed KPH | gust KPH | rain 1hr cm | rain 24hr cm | rain mn cm | humidity % | barometer mb |
| 20260505101914 | 7 | 189 | 1.6 | 3.2 | 0.00 | 0.00 | 0.03 | 82 | 1004.9 |
| 20260505101412 | 7 | 205 | 0.0 | 1.6 | 0.00 | 0.00 | 0.03 | 81 | 1004.5 |
| 20260505100913 | 7 | 192 | 0.0 | 0.0 | 0.00 | 0.00 | 0.03 | 81 | 1004.3 |
| 20260505100413 | 7 | 190 | 0.0 | 0.0 | 0.00 | 0.00 | 0.03 | 81 | 1004.3 |
| 20260505095913 | 7 | 10 | 3.2 | 3.2 | 0.00 | 0.00 | 0.03 | 81 | 1004.3 |
| 20260505095413 | 7 | 344 | 1.6 | 3.2 | 0.00 | 0.00 | 0.03 | 80 | 1004.3 |
| 20260505094913 | 7 | 0 | 0.0 | 0.0 | 0.00 | 0.00 | 0.03 | 80 | 1004.4 |
| 20260505094413 | 7 | 202 | 1.6 | 4.8 | 0.00 | 0.00 | 0.03 | 79 | 1004.3 |
| 20260505093912 | 8 | 188 | 3.2 | 3.2 | 0.00 | 0.00 | 0.03 | 78 | 1003.9 |
| 20260505093417 | 8 | 197 | 1.6 | 3.2 | 0.00 | 0.00 | 0.03 | 76 | 1003.5 |
| 20260505092915 | 8 | 217 | 3.2 | 3.2 | 0.00 | 0.00 | 0.03 | 76 | 1003.4 |
| 20260505092416 | 8 | 241 | 1.6 | 3.2 | 0.00 | 0.00 | 0.03 | 74 | 1003.1 |
| 20260505091913 | 9 | 277 | 1.6 | 3.2 | 0.00 | 0.00 | 0.03 | 73 | 1002.9 |
| 20260505091413 | 9 | 187 | 3.2 | 3.2 | 0.00 | 0.00 | 0.03 | 71 | 1002.9 |
| 20260505090914 | 9 | 321 | 1.6 | 3.2 | 0.00 | 0.00 | 0.03 | 70 | 1002.8 |
| 20260505090414 | 10 | 250 | 3.2 | 4.8 | 0.00 | 0.00 | 0.03 | 69 | 1002.8 |
| 20260505085914 | 10 | 341 | 3.2 | 3.2 | 0.00 | 0.00 | 0.03 | 68 | 1002.6 |
| 20260505085412 | 10 | 15 | 1.6 | 3.2 | 0.00 | 0.00 | 0.03 | 67 | 1002.6 |
| 20260505084915 | 10 | 346 | 3.2 | 3.2 | 0.00 | 0.00 | 0.03 | 66 | 1002.6 |
| 20260505084413 | 10 | 3 | 3.2 | 4.8 | 0.00 | 0.00 | 0.03 | 65 | 1002.3 |
| 20260505083913 | 10 | 3 | 3.2 | 4.8 | 0.00 | 0.00 | 0.03 | 65 | 1002.1 |
| 20260505083413 | 10 | 261 | 3.2 | 3.2 | 0.00 | 0.00 | 0.03 | 64 | 1002.2 |
| 20260505082912 | 10 | 16 | 1.6 | 1.6 | 0.00 | 0.00 | 0.03 | 64 | 1002.2 |
| 20260505082414 | 10 | 216 | 3.2 | 3.2 | 0.00 | 0.00 | 0.03 | 64 | 1002.3 |
| 20260505081913 | 10 | 87 | 1.6 | 3.2 | 0.00 | 0.00 | 0.03 | 63 | 1002.1 |
| 20260505081414 | 10 | 351 | 3.2 | 6.4 | 0.00 | 0.00 | 0.03 | 63 | 1002.0 |
| 20260505080916 | 11 | 334 | 1.6 | 1.6 | 0.00 | 0.00 | 0.03 | 62 | 1001.9 |
| 20260505080413 | 11 | 332 | 4.8 | 6.4 | 0.00 | 0.00 | 0.03 | 61 | 1001.8 |
| 20260505075913 | 11 | 341 | 1.6 | 3.2 | 0.00 | 0.00 | 0.03 | 61 | 1001.7 |
| 20260505075412 | 11 | 317 | 3.2 | 6.4 | 0.00 | 0.00 | 0.03 | 61 | 1001.8 |
| 20260505074913 | 11 | 331 | 1.6 | 3.2 | 0.00 | 0.00 | 0.03 | 60 | 1001.8 |
| 20260505074412 | 11 | 345 | 1.6 | 3.2 | 0.00 | 0.00 | 0.03 | 60 | 1001.6 |
| 20260505073912 | 11 | 334 | 3.2 | 4.8 | 0.00 | 0.00 | 0.03 | 60 | 1001.7 |
| 20260505073414 | 11 | 312 | 0.0 | 0.0 | 0.00 | 0.00 | 0.03 | 61 | 1001.6 |
| 20260505072914 | 11 | 356 | 1.6 | 3.2 | 0.00 | 0.00 | 0.03 | 61 | 1001.5 |
| 20260505072412 | 11 | 341 | 3.2 | 8.0 | 0.00 | 0.00 | 0.03 | 61 | 1001.6 |
| 20260505071913 | 11 | 3 | 0.0 | 1.6 | 0.00 | 0.00 | 0.03 | 62 | 1001.4 |
| 20260505071412 | 11 | 5 | 3.2 | 4.8 | 0.03 | 0.00 | 0.03 | 63 | 1001.4 |
| 20260505070913 | 10 | 318 | 3.2 | 6.4 | 0.03 | 0.00 | 0.03 | 64 | 1001.5 |
| 20260505070412 | 10 | 47 | 1.6 | 1.6 | 0.03 | 0.00 | 0.03 | 70 | 1001.4 |
| 20260505065912 | 10 | 290 | 1.6 | 1.6 | 0.03 | 0.00 | 0.03 | 74 | 1001.6 |
| 20260505065413 | 10 | 322 | 0.0 | 1.6 | 0.03 | 0.00 | 0.03 | 77 | 1001.5 |
| 20260505064912 | 10 | 176 | 1.6 | 3.2 | 0.03 | 0.00 | 0.03 | 82 | 1002.0 |
| 20260505064412 | 10 | 182 | 1.6 | 3.2 | 0.03 | 0.00 | 0.03 | 83 | 1002.3 |
| 20260505063916 | 10 | 201 | 0.0 | 0.0 | 0.03 | 0.00 | 0.03 | 82 | 1001.8 |
| 20260505063413 | 10 | 129 | 0.0 | 0.0 | 0.03 | 0.00 | 0.03 | 82 | 1001.7 |
| 20260505062912 | 11 | 0 | 0.0 | 0.0 | 0.03 | 0.00 | 0.03 | 82 | 1001.8 |
| 20260505062413 | 11 | 0 | 0.0 | 0.0 | 0.03 | 0.00 | 0.03 | 82 | 1001.8 |
| 20260505061912 | 11 | 0 | 0.0 | 0.0 | 0.00 | 0.00 | 0.03 | 82 | 1001.5 |
| 20260505061413 | 11 | 166 | 0.0 | 0.0 | 0.00 | 0.00 | 0.03 | 83 | 1001.8 |
| 20260505060914 | 11 | 202 | 3.2 | 3.2 | 0.00 | 0.00 | 0.03 | 83 | 1001.5 |
| 20260505060412 | 11 | 187 | 3.2 | 3.2 | 0.00 | 0.00 | 0.00 | 83 | 1001.5 |
| 20260505055912 | 11 | 164 | 1.6 | 3.2 | 0.00 | 0.00 | 0.00 | 83 | 1001.6 |
| 20260505055412 | 11 | 185 | 1.6 | 3.2 | 0.00 | 0.00 | 0.00 | 83 | 1001.7 |
| 20260505054912 | 11 | 204 | 1.6 | 1.6 | 0.00 | 0.00 | 0.00 | 83 | 1001.7 |
| 20260505054412 | 11 | 203 | 0.0 | 1.6 | 0.00 | 0.00 | 0.00 | 83 | 1001.4 |
| 20260505053912 | 11 | 187 | 0.0 | 0.0 | 0.00 | 0.00 | 0.00 | 83 | 1001.5 |
| 20260505053413 | 11 | 188 | 0.0 | 0.0 | 0.00 | 0.00 | 0.00 | 83 | 1001.3 |
| 20260505052913 | 11 | 145 | 1.6 | 1.6 | 0.00 | 0.00 | 0.00 | 83 | 1001.3 |
| 20260505052412 | 11 | 182 | 1.6 | 1.6 | 0.00 | 0.00 | 0.00 | 83 | 1001.4 |
| 20260505051912 | 11 | 189 | 1.6 | 4.8 | 0.00 | 0.00 | 0.00 | 83 | 1001.3 |
| 20260505051414 | 11 | 187 | 3.2 | 8.0 | 0.00 | 0.00 | 0.00 | 83 | 1001.0 |
| 20260505050919 | 12 | 192 | 3.2 | 6.4 | 0.00 | 0.00 | 0.00 | 82 | 1001.0 |
| 20260505050412 | 12 | 170 | 1.6 | 3.2 | 0.00 | 0.00 | 0.00 | 82 | 1000.7 |
| 20260505041413 | 13 | 211 | 4.8 | 6.4 | 0.00 | 0.00 | 0.00 | 79 | 1000.5 |
| 20260505040912 | 13 | 191 | 3.2 | 6.4 | 0.00 | 0.00 | 0.00 | 78 | 1000.1 |
| 20260505040412 | 13 | 193 | 1.6 | 3.2 | 0.00 | 0.00 | 0.00 | 77 | 1000.0 |
| 20260505035912 | 13 | 13 | 3.2 | 4.8 | 0.00 | 0.00 | 0.08 | 77 | 1000.0 |
| 20260505035413 | 14 | 202 | 3.2 | 8.0 | 0.00 | 0.00 | 0.08 | 76 | 999.6 |
| 20260505034913 | 15 | 200 | 8.0 | 12.9 | 0.00 | 0.00 | 0.08 | 74 | 999.5 |
| 20260505034412 | 16 | 287 | 4.8 | 11.3 | 0.00 | 0.00 | 0.08 | 73 | 999.9 |
| 20260505033912 | 17 | 311 | 6.4 | 9.7 | 0.00 | 0.00 | 0.08 | 69 | 999.8 |
| 20260505033412 | 17 | 300 | 3.2 | 6.4 | 0.00 | 0.00 | 0.08 | 68 | 999.7 |
| 20260505032913 | 17 | 283 | 6.4 | 11.3 | 0.00 | 0.00 | 0.08 | 67 | 999.2 |
| 20260505032412 | 17 | 203 | 6.4 | 12.9 | 0.00 | 0.00 | 0.08 | 67 | 998.7 |
| 20260505031913 | 17 | 199 | 11.3 | 20.9 | 0.00 | 0.00 | 0.08 | 68 | 998.4 |
| 20260505031412 | 17 | 201 | 6.4 | 8.0 | 0.00 | 0.00 | 0.08 | 69 | 998.3 |
| 20260505030912 | 17 | 198 | 6.4 | 9.7 | 0.00 | 0.00 | 0.08 | 69 | 998.3 |
| 20260505030414 | 17 | 192 | 6.4 | 9.7 | 0.00 | 0.00 | 0.08 | 70 | 998.1 |
| 20260505025916 | 17 | 189 | 8.0 | 12.9 | 0.00 | 0.00 | 0.08 | 70 | 997.8 |
| 20260505025414 | 17 | 187 | 8.0 | 12.9 | 0.00 | 0.00 | 0.08 | 70 | 997.8 |
| 20260505024916 | 17 | 197 | 6.4 | 8.0 | 0.00 | 0.00 | 0.08 | 70 | 997.7 |
| 20260505024415 | 17 | 190 | 6.4 | 12.9 | 0.00 | 0.00 | 0.08 | 69 | 997.8 |
| 20260505023916 | 17 | 189 | 9.7 | 14.5 | 0.08 | 0.00 | 0.08 | 68 | 997.9 |
| 20260505023414 | 17 | 165 | 4.8 | 6.4 | 0.08 | 0.00 | 0.08 | 69 | 997.7 |
| 20260505022916 | 17 | 192 | 9.7 | 14.5 | 0.08 | 0.00 | 0.08 | 68 | 997.8 |
| 20260505022416 | 17 | 176 | 8.0 | 9.7 | 0.08 | 0.00 | 0.08 | 69 | 997.8 |
| 20260505021915 | 17 | 170 | 8.0 | 12.9 | 0.08 | 0.00 | 0.08 | 69 | 997.8 |
| 20260505021416 | 17 | 183 | 6.4 | 12.9 | 0.08 | 0.00 | 0.08 | 69 | 997.8 |
| 20260505020914 | 17 | 179 | 6.4 | 12.9 | 0.08 | 0.00 | 0.08 | 69 | 997.8 |
| 20260505020412 | 17 | 185 | 12.9 | 17.7 | 0.08 | 0.00 | 0.08 | 68 | 998.0 |
| 20260505015913 | 17 | 184 | 9.7 | 14.5 | 0.08 | 0.00 | 0.08 | 68 | 998.1 |
| 20260505015412 | 17 | 182 | 9.7 | 14.5 | 0.05 | 0.00 | 0.08 | 68 | 997.9 |
| 20260505014914 | 17 | 181 | 8.0 | 11.3 | 0.05 | 0.00 | 0.05 | 68 | 998.0 |
| 20260505014413 | 17 | 185 | 4.8 | 9.7 | 0.05 | 0.00 | 0.05 | 69 | 997.6 |
| 20260505013912 | 18 | 190 | 6.4 | 11.3 | 0.05 | 0.00 | 0.05 | 67 | 997.9 |
| 20260505013412 | 18 | 206 | 9.7 | 19.3 | 0.05 | 0.00 | 0.05 | 65 | 998.1 |
| 20260505012912 | 18 | 204 | 6.4 | 11.3 | 0.00 | 0.00 | 0.00 | 61 | 998.0 |
| 20260505012412 | 18 | 211 | 3.2 | 6.4 | 0.00 | 0.00 | 0.00 | 62 | 997.6 |
| 20260505011913 | 19 | 188 | 4.8 | 8.0 | 0.00 | 0.00 | 0.00 | 62 | 997.2 |
| 20260505011412 | 20 | 189 | 8.0 | 12.9 | 0.00 | 0.00 | 0.00 | 62 | 997.4 |
| 20260505010912 | 20 | 192 | 14.5 | 27.4 | 0.00 | 0.00 | 0.00 | 61 | 997.1 |
| 20260505010414 | 20 | 161 | 8.0 | 16.1 | 0.00 | 0.00 | 0.00 | 60 | 997.3 |
| 20260505005914 | 20 | 190 | 14.5 | 20.9 | 0.00 | 0.00 | 0.00 | 59 | 997.2 |
| 20260505005414 | 21 | 191 | 9.7 | 14.5 | 0.00 | 0.00 | 0.00 | 58 | 997.1 |
| 20260505004912 | 21 | 169 | 6.4 | 12.9 | 0.00 | 0.00 | 0.00 | 58 | 997.0 |
| 20260505004412 | 21 | 183 | 8.0 | 12.9 | 0.00 | 0.00 | 0.00 | 57 | 997.2 |
| 20260505003913 | 21 | 178 | 8.0 | 14.5 | 0.00 | 0.00 | 0.00 | 57 | 997.1 |
| 20260505003413 | 21 | 176 | 9.7 | 12.9 | 0.00 | 0.00 | 0.00 | 56 | 997.3 |
| 20260505002912 | 21 | 160 | 6.4 | 9.7 | 0.00 | 0.00 | 0.00 | 55 | 997.3 |
| 20260505002413 | 21 | 162 | 9.7 | 16.1 | 0.00 | 0.00 | 0.00 | 54 | 997.2 |
| 20260505001913 | 21 | 177 | 6.4 | 16.1 | 0.00 | 0.00 | 0.00 | 53 | 997.1 |
| 20260505001414 | 22 | 195 | 11.3 | 16.1 | 0.00 | 0.00 | 0.00 | 51 | 997.0 |
| 20260505000912 | 22 | 195 | 8.0 | 12.9 | 0.00 | 0.00 | 0.00 | 49 | 997.0 |
| 20260505000413 | 22 | 178 | 6.4 | 9.7 | 0.00 | 0.00 | 0.00 | 47 | 997.0 |
| 20260504235912 | 23 | 190 | 11.3 | 16.1 | 0.00 | 0.00 | 0.00 | 42 | 997.1 |
| 20260504235412 | 23 | 169 | 6.4 | 9.7 | 0.00 | 0.00 | 0.00 | 38 | 997.1 |
| 20260504234912 | 23 | 192 | 9.7 | 17.7 | 0.00 | 0.00 | 0.00 | 36 | 997.1 |
| 20260504234412 | 23 | 156 | 4.8 | 6.4 | 0.00 | 0.00 | 0.00 | 37 | 996.9 |
| 20260504233913 | 24 | 207 | 3.2 | 4.8 | 0.00 | 0.00 | 0.00 | 36 | 996.9 |
| 20260504233412 | 24 | 186 | 3.2 | 4.8 | 0.00 | 0.00 | 0.00 | 36 | 996.9 |
| 20260504232912 | 24 | 193 | 3.2 | 6.4 | 0.00 | 0.00 | 0.00 | 35 | 997.0 |
| 20260504232412 | 25 | 208 | 6.4 | 11.3 | 0.00 | 0.00 | 0.00 | 34 | 997.1 |
| 20260504231914 | 25 | 196 | 6.4 | 9.7 | 0.00 | 0.00 | 0.00 | 34 | 997.2 |
| 20260504231413 | 25 | 175 | 1.6 | 4.8 | 0.00 | 0.00 | 0.00 | 35 | 997.3 |
| 20260504230912 | 25 | 194 | 8.0 | 12.9 | 0.00 | 0.00 | 0.00 | 34 | 997.4 |
| 20260504230422 | 25 | 201 | 4.8 | 6.4 | 0.00 | 0.00 | 0.00 | 35 | 997.5 |
| 20260504225912 | 24 | 191 | 3.2 | 6.4 | 0.00 | 0.00 | 0.00 | 36 | 997.6 |
| 20260504225412 | 24 | 187 | 4.8 | 9.7 | 0.00 | 0.00 | 0.00 | 36 | 997.6 |
| 20260504224913 | 24 | 205 | 8.0 | 12.9 | 0.00 | 0.00 | 0.00 | 36 | 997.7 |
| 20260504224412 | 24 | 206 | 6.4 | 12.9 | 0.00 | 0.00 | 0.00 | 36 | 997.8 |
| 20260504223913 | 24 | 204 | 4.8 | 12.9 | 0.00 | 0.00 | 0.00 | 36 | 998.0 |
| 20260504223412 | 24 | 180 | 4.8 | 6.4 | 0.00 | 0.00 | 0.00 | 36 | 998.1 |
| 20260504222912 | 24 | 195 | 4.8 | 6.4 | 0.00 | 0.00 | 0.00 | 36 | 998.2 |
| 20260504222412 | 24 | 199 | 3.2 | 6.4 | 0.00 | 0.00 | 0.00 | 36 | 998.2 |
| 20260504221914 | 24 | 207 | 6.4 | 11.3 | 0.00 | 0.00 | 0.00 | 36 | 998.3 |
| 20260504221412 | 23 | 205 | 4.8 | 6.4 | 0.00 | 0.00 | 0.00 | 36 | 998.3 |
| 20260504220913 | 23 | 233 | 4.8 | 8.0 | 0.00 | 0.00 | 0.00 | 37 | 998.4 |
| 20260504220412 | 23 | 197 | 8.0 | 12.9 | 0.00 | 0.00 | 0.00 | 37 | 998.4 |
| 20260504215913 | 23 | 230 | 3.2 | 4.8 | 0.00 | 0.00 | 0.00 | 39 | 998.5 |
| 20260504215412 | 23 | 188 | 3.2 | 4.8 | 0.00 | 0.00 | 0.00 | 38 | 998.6 |
| 20260504214914 | 23 | 178 | 4.8 | 8.0 | 0.00 | 0.00 | 0.00 | 39 | 998.7 |
| 20260504214412 | 23 | 202 | 11.3 | 19.3 | 0.00 | 0.00 | 0.00 | 37 | 998.6 |
| 20260504213912 | 23 | 188 | 3.2 | 6.4 | 0.00 | 0.00 | 0.00 | 38 | 998.7 |
| 20260504213413 | 23 | 194 | 6.4 | 11.3 | 0.00 | 0.00 | 0.00 | 38 | 998.7 |
| 20260504212913 | 23 | 241 | 6.4 | 9.7 | 0.00 | 0.00 | 0.00 | 39 | 998.8 |
| 20260504212412 | 23 | 201 | 9.7 | 14.5 | 0.00 | 0.00 | 0.00 | 40 | 998.9 |
| 20260504211913 | 23 | 199 | 6.4 | 11.3 | 0.00 | 0.00 | 0.00 | 38 | 998.8 |
| 20260504211416 | 23 | 199 | 6.4 | 16.1 | 0.00 | 0.00 | 0.00 | 39 | 998.9 |
| 20260504210916 | 23 | 197 | 3.2 | 8.0 | 0.00 | 0.00 | 0.00 | 41 | 999.0 |
| 20260504210414 | 23 | 185 | 9.7 | 14.5 | 0.00 | 0.00 | 0.00 | 40 | 999.1 |
| 20260504205912 | 23 | 198 | 6.4 | 14.5 | 0.00 | 0.00 | 0.00 | 40 | 999.1 |
| 20260504205413 | 23 | 171 | 6.4 | 9.7 | 0.00 | 0.00 | 0.00 | 41 | 999.2 |
| 20260504204916 | 23 | 166 | 9.7 | 14.5 | 0.00 | 0.00 | 0.00 | 40 | 999.3 |
| 20260504204412 | 23 | 204 | 6.4 | 11.3 | 0.00 | 0.00 | 0.00 | 41 | 999.3 |
| 20260504203912 | 23 | 210 | 4.8 | 9.7 | 0.00 | 0.00 | 0.00 | 41 | 999.4 |
| 20260504203413 | 23 | 198 | 9.7 | 14.5 | 0.00 | 0.00 | 0.00 | 40 | 999.5 |
| 20260504202913 | 23 | 205 | 8.0 | 14.5 | 0.00 | 0.00 | 0.00 | 41 | 999.6 |
| 20260504202415 | 23 | 188 | 11.3 | 19.3 | 0.00 | 0.00 | 0.00 | 42 | 999.5 |
| 20260504201915 | 23 | 192 | 9.7 | 14.5 | 0.00 | 0.00 | 0.00 | 42 | 999.7 |
| 20260504201413 | 23 | 195 | 6.4 | 11.3 | 0.00 | 0.00 | 0.00 | 44 | 999.8 |
| 20260504200912 | 23 | 203 | 9.7 | 11.3 | 0.00 | 0.00 | 0.00 | 44 | 999.9 |
| 20260504200416 | 23 | 198 | 11.3 | 14.5 | 0.00 | 0.00 | 0.00 | 45 | 999.9 |
| 20260504195914 | 22 | 194 | 8.0 | 16.1 | 0.00 | 0.00 | 0.00 | 46 | 1000.0 |
| 20260504195416 | 23 | 194 | 6.4 | 16.1 | 0.00 | 0.00 | 0.00 | 46 | 1000.0 |
| 20260504194914 | 22 | 178 | 8.0 | 12.9 | 0.00 | 0.00 | 0.00 | 46 | 1000.0 |
| 20260504194417 | 22 | 198 | 11.3 | 22.5 | 0.00 | 0.00 | 0.00 | 46 | 1000.0 |
| 20260504193913 | 22 | 192 | 8.0 | 17.7 | 0.00 | 0.00 | 0.00 | 46 | 1000.0 |
| 20260504193413 | 22 | 186 | 8.0 | 11.3 | 0.00 | 0.00 | 0.00 | 46 | 1000.2 |
| 20260504192921 | 22 | 201 | 9.7 | 14.5 | 0.00 | 0.00 | 0.00 | 46 | 1000.2 |
| 20260504192412 | 22 | 195 | 6.4 | 11.3 | 0.00 | 0.00 | 0.00 | 46 | 1000.2 |
| 20260504191912 | 22 | 191 | 12.9 | 19.3 | 0.00 | 0.00 | 0.00 | 46 | 1000.2 |
| 20260504191413 | 22 | 214 | 6.4 | 11.3 | 0.00 | 0.00 | 0.00 | 45 | 1000.4 |
| 20260504190912 | 22 | 208 | 8.0 | 14.5 | 0.00 | 0.00 | 0.00 | 45 | 1000.2 |
| 20260504190415 | 22 | 188 | 4.8 | 11.3 | 0.00 | 0.00 | 0.00 | 44 | 1000.3 |
| 20260504185914 | 22 | 197 | 6.4 | 11.3 | 0.00 | 0.00 | 0.00 | 44 | 1000.2 |
| 20260504185412 | 22 | 190 | 8.0 | 12.9 | 0.00 | 0.00 | 0.00 | 43 | 1000.2 |
| 20260504184913 | 22 | 193 | 9.7 | 16.1 | 0.00 | 0.00 | 0.00 | 43 | 1000.3 |
| 20260504184413 | 22 | 201 | 6.4 | 12.9 | 0.00 | 0.00 | 0.00 | 43 | 1000.4 |
| 20260504183918 | 22 | 226 | 8.0 | 12.9 | 0.00 | 0.00 | 0.00 | 41 | 1000.4 |
| 20260504183413 | 22 | 191 | 9.7 | 14.5 | 0.00 | 0.00 | 0.00 | 41 | 1000.3 |
| 20260504182426 | 22 | 190 | 8.0 | 9.7 | 0.00 | 0.00 | 0.00 | 40 | 1000.3 |
| 20260504181915 | 22 | 194 | 4.8 | 6.4 | 0.00 | 0.00 | 0.00 | 38 | 1000.3 |
| 20260504181414 | 22 | 194 | 6.4 | 11.3 | 0.00 | 0.00 | 0.00 | 38 | 1000.3 |
| 20260504180914 | 22 | 201 | 4.8 | 9.7 | 0.00 | 0.00 | 0.00 | 39 | 1000.4 |
| 20260504180414 | 22 | 191 | 8.0 | 12.9 | 0.00 | 0.00 | 0.00 | 38 | 1000.5 |
| 20260504175915 | 22 | 190 | 4.8 | 8.0 | 0.00 | 0.00 | 0.00 | 40 | 1000.6 |
| 20260504175414 | 22 | 207 | 9.7 | 11.3 | 0.00 | 0.00 | 0.00 | 39 | 1000.7 |
| 20260504174912 | 22 | 201 | 8.0 | 12.9 | 0.00 | 0.00 | 0.00 | 39 | 1000.7 |
| 20260504174413 | 22 | 197 | 6.4 | 9.7 | 0.00 | 0.00 | 0.00 | 37 | 1000.7 |
| 20260504173912 | 22 | 196 | 9.7 | 16.1 | 0.00 | 0.00 | 0.00 | 36 | 1000.7 |
| 20260504173415 | 21 | 144 | 4.8 | 9.7 | 0.00 | 0.00 | 0.00 | 37 | 1000.7 |
| 20260504172916 | 21 | 194 | 9.7 | 17.7 | 0.00 | 0.00 | 0.00 | 36 | 1000.8 |
| 20260504172415 | 21 | 188 | 8.0 | 14.5 | 0.00 | 0.00 | 0.00 | 36 | 1000.8 |
| 20260504171914 | 21 | 199 | 6.4 | 9.7 | 0.00 | 0.00 | 0.00 | 36 | 1000.9 |
| 20260504171415 | 21 | 150 | 6.4 | 9.7 | 0.00 | 0.00 | 0.00 | 37 | 1001.0 |
| 20260504170912 | 21 | 185 | 8.0 | 11.3 | 0.00 | 0.00 | 0.00 | 37 | 1001.0 |
| 20260504170413 | 21 | 168 | 6.4 | 11.3 | 0.00 | 0.00 | 0.00 | 37 | 1001.1 |
| 20260504160415 | 20 | 199 | 9.7 | 12.9 | 0.00 | 0.00 | 0.00 | 43 | 1001.9 |
| 20260504150915 | 17 | 167 | 3.2 | 8.0 | 0.00 | 0.00 | 0.00 | 56 | 1002.3 |
| 20260504150412 | 17 | 185 | 9.7 | 11.3 | 0.00 | 0.00 | 0.00 | 54 | 1002.5 |
| 20260504140914 | 15 | 183 | 6.4 | 9.7 | 0.00 | 0.00 | 0.00 | 61 | 1002.9 |
| 20260504140417 | 15 | 167 | 3.2 | 4.8 | 0.00 | 0.00 | 0.00 | 63 | 1002.9 |
| 20260504130418 | 13 | 196 | 6.4 | 14.5 | 0.00 | 0.00 | 0.00 | 68 | 1003.3 |
| 20260504110420 | 12 | 171 | 6.4 | 11.3 | 0.00 | 0.00 | 0.00 | 74 | 1002.9 |